• In Hungary
  • List of Countries
  • For 7 days
  • Water Temperature
  • Satellite Maps
  • Weather Map
  • News
  • Weather Widgets
  • user-avatar
    Login

    Hourly Weather Mugri

    Today, 17 July, Tuesday

    Time Temperature Precipitation Wind Pressure Humidity
    00:00 +16°C° 0 mm 2 mps 659 mmHg 79%
    01:00 +16°C° 0 mm 2 mps 659 mmHg 77%
    02:00 +16°C° 0 mm 2 mps 659 mmHg 75%
    03:00 +16°C° 0 mm 2 mps 658 mmHg 68%
    04:00 +17°C° 0 mm 2 mps 659 mmHg 69%
    05:00 +17°C° 0 mm 2 mps 659 mmHg 69%
    06:00 +18°C° 0 mm 2 mps 659 mmHg 70%
    07:00 +19°C° 0 mm 2 mps 660 mmHg 66%
    08:00 +20°C° 0 mm 2 mps 660 mmHg 62%
    09:00 +23°C° 0 mm 2 mps 660 mmHg 59%
    10:00 +22°C° 0 mm 3 mps 660 mmHg 58%
    11:00 +24°C° 0 mm 3 mps 660 mmHg 57%
    12:00 +25°C° 0 mm 3 mps 660 mmHg 57%
    13:00 +25°C° 0.1 mm 3 mps 660 mmHg 58%
    14:00 +24°C° 0.1 mm 3 mps 660 mmHg 60%
    15:00 +24°C° 0.1 mm 3 mps 660 mmHg 61%
    16:00 +22°C° 0.4 mm 3 mps 660 mmHg 66%
    17:00 +21°C° 0.4 mm 2 mps 660 mmHg 71%
    18:00 +20°C° 0.4 mm 2 mps 659 mmHg 76%
    19:00 +19°C° 0 mm 2 mps 659 mmHg 79%
    20:00 +18°C° 0 mm 2 mps 659 mmHg 83%
    21:00 +18°C° 0 mm 1 mps 659 mmHg 87%
    22:00 +18°C° 0 mm 1 mps 659 mmHg 83%
    23:00 +18°C° 0 mm 1 mps 659 mmHg 80%

    Tomorrow, 18 July, Wednesday

    Time Temperature Precipitation Wind Pressure Humidity
    00:00 +16°C° 0 mm 2 mps 659 mmHg 77%
    01:00 +16°C° 0 mm 2 mps 659 mmHg 73%
    02:00 +16°C° 0 mm 2 mps 659 mmHg 70%
    03:00 +16°C° 0 mm 2 mps 659 mmHg 67%
    04:00 +17°C° 0 mm 2 mps 659 mmHg 66%
    05:00 +18°C° 0 mm 2 mps 659 mmHg 65%
    06:00 +18°C° 0 mm 2 mps 660 mmHg 64%
    07:00 +20°C° 0 mm 2 mps 660 mmHg 61%
    08:00 +23°C° 0 mm 2 mps 660 mmHg 58%
    09:00 +24°C° 0 mm 3 mps 660 mmHg 55%
    10:00 +25°C° 0 mm 3 mps 660 mmHg 54%
    11:00 +26°C° 0 mm 4 mps 660 mmHg 53%
    12:00 +27°C° 0 mm 4 mps 660 mmHg 52%
    13:00 +27°C° 0 mm 4 mps 660 mmHg 54%
    14:00 +27°C° 0 mm 4 mps 659 mmHg 55%
    15:00 +27°C° 0 mm 4 mps 659 mmHg 57%
    16:00 +26°C° 0 mm 4 mps 659 mmHg 62%
    17:00 +25°C° 0 mm 3 mps 659 mmHg 67%
    18:00 +24°C° 0 mm 3 mps 659 mmHg 72%
    19:00 +23°C° 0 mm 2 mps 659 mmHg 73%
    20:00 +20°C° 0 mm 2 mps 658 mmHg 75%
    21:00 +19°C° 0 mm 2 mps 658 mmHg 76%
    22:00 +19°C° 0 mm 2 mps 658 mmHg 70%
    23:00 +18°C° 0 mm 2 mps 658 mmHg 64%

    Day after tomorrow, 19 July, Thursday

    Time Temperature Precipitation Wind Pressure Humidity
    00:00 +18°C° 0 mm 2 mps 658 mmHg 58%
    01:00 +18°C° 0 mm 2 mps 658 mmHg 55%
    02:00 +18°C° 0 mm 2 mps 658 mmHg 51%
    03:00 +18°C° 0 mm 2 mps 657 mmHg 48%
    04:00 +19°C° 0 mm 2 mps 657 mmHg 50%
    05:00 +19°C° 0 mm 2 mps 658 mmHg 52%
    06:00 +20°C° 0 mm 2 mps 658 mmHg 53%
    07:00 +23°C° 0 mm 2 mps 658 mmHg 50%
    08:00 +25°C° 0 mm 2 mps 658 mmHg 47%
    09:00 +27°C° 0 mm 2 mps 659 mmHg 44%
    10:00 +28°C° 0 mm 2 mps 659 mmHg 45%
    11:00 +29°C° 0 mm 2 mps 659 mmHg 46%
    12:00 +29°C° 0 mm 3 mps 659 mmHg 47%
    13:00 +29°C° 0 mm 3 mps 658 mmHg 49%
    14:00 +29°C° 0 mm 3 mps 658 mmHg 50%
    15:00 +29°C° 0 mm 3 mps 658 mmHg 52%
    16:00 +28°C° 0 mm 2 mps 658 mmHg 56%
    17:00 +27°C° 0 mm 2 mps 658 mmHg 61%
    18:00 +26°C° 0 mm 1 mps 658 mmHg 66%
    19:00 +25°C° 0 mm 1 mps 658 mmHg 70%
    20:00 +23°C° 0 mm 2 mps 658 mmHg 75%
    21:00 +21°C° 0 mm 2 mps 658 mmHg 80%
    22:00 +21°C° 0 mm 2 mps 658 mmHg 77%
    23:00 +20°C° 0 mm 2 mps 658 mmHg 74%

    20 July, Friday

    Time Temperature Precipitation Wind Pressure Humidity
    00:00 +20°C° 0 mm 2 mps 658 mmHg 71%
    01:00 +20°C° 0 mm 2 mps 658 mmHg 68%
    02:00 +20°C° 0 mm 2 mps 658 mmHg 65%
    03:00 +20°C° 0 mm 3 mps 658 mmHg 62%
    04:00 +20°C° 0 mm 2 mps 658 mmHg 61%
    05:00 +21°C° 0 mm 2 mps 658 mmHg 60%
    06:00 +23°C° 0 mm 2 mps 658 mmHg 60%
    07:00 +24°C° 0 mm 2 mps 659 mmHg 56%
    08:00 +26°C° 0 mm 3 mps 659 mmHg 53%
    09:00 +28°C° 0 mm 3 mps 660 mmHg 50%
    10:00 +29°C° 0 mm 3 mps 660 mmHg 50%
    11:00 +29°C° 0 mm 3 mps 660 mmHg 50%
    12:00 +30°C° 0 mm 3 mps 659 mmHg 51%
    13:00 +30°C° 0 mm 3 mps 659 mmHg 52%
    14:00 +29°C° 0 mm 3 mps 659 mmHg 53%
    15:00 +29°C° 0 mm 3 mps 659 mmHg 55%
    16:00 +28°C° 0.1 mm 2 mps 658 mmHg 58%
    17:00 +27°C° 0.1 mm 2 mps 658 mmHg 62%
    18:00 +27°C° 0.1 mm 1 mps 658 mmHg 66%
    19:00 +25°C° 0 mm 1 mps 658 mmHg 71%
    20:00 +24°C° 0 mm 1 mps 658 mmHg 76%
    21:00 +22°C° 0 mm 1 mps 658 mmHg 82%
    22:00 +21°C° 0 mm 2 mps 658 mmHg 80%
    23:00 +21°C° 0 mm 2 mps 658 mmHg 79%

    21 July, Saturday

    Time Temperature Precipitation Wind Pressure Humidity
    00:00 +21°C° 0 mm 2 mps 657 mmHg 78%
    01:00 +20°C° 0 mm 2 mps 657 mmHg 75%
    02:00 +20°C° 0 mm 3 mps 657 mmHg 72%
    03:00 +20°C° 0 mm 3 mps 657 mmHg 70%
    04:00 +21°C° 0 mm 2 mps 658 mmHg 68%
    05:00 +21°C° 0 mm 2 mps 658 mmHg 67%
    06:00 +23°C° 0 mm 2 mps 658 mmHg 66%
    07:00 +25°C° 0 mm 2 mps 658 mmHg 61%
    08:00 +26°C° 0 mm 3 mps 659 mmHg 55%
    09:00 +28°C° 0 mm 3 mps 659 mmHg 50%
    10:00 +29°C° 0.1 mm 3 mps 659 mmHg 49%
    11:00 +29°C° 0.1 mm 4 mps 659 mmHg 48%
    12:00 +30°C° 0.1 mm 4 mps 659 mmHg 47%
    13:00 +30°C° 0.3 mm 4 mps 659 mmHg 48%
    14:00 +29°C° 0.3 mm 4 mps 659 mmHg 49%
    15:00 +29°C° 0.3 mm 4 mps 659 mmHg 50%
    16:00 +28°C° 0.1 mm 3 mps 659 mmHg 54%
    17:00 +27°C° 0.1 mm 2 mps 658 mmHg 57%
    18:00 +26°C° 0.1 mm 1 mps 658 mmHg 60%
    19:00 +25°C° 0 mm 2 mps 658 mmHg 65%
    20:00 +23°C° 0 mm 2 mps 658 mmHg 69%
    21:00 +20°C° 0 mm 2 mps 658 mmHg 73%
    22:00 +20°C° 0 mm 3 mps 658 mmHg 74%
    23:00 +20°C° 0 mm 3 mps 658 mmHg 74%

    22 July, Sunday

    Time Temperature Precipitation Wind Pressure Humidity
    00:00 +20°C° 0 mm 3 mps 658 mmHg 74%
    01:00 +20°C° 0 mm 3 mps 658 mmHg 73%
    02:00 +20°C° 0 mm 3 mps 658 mmHg 71%
    03:00 +20°C° 0 mm 3 mps 658 mmHg 69%
    04:00 +20°C° 0 mm 3 mps 658 mmHg 68%
    05:00 +21°C° 0 mm 3 mps 659 mmHg 67%
    06:00 +22°C° 0 mm 3 mps 659 mmHg 66%
    07:00 +23°C° 0 mm 4 mps 659 mmHg 63%
    08:00 +25°C° 0 mm 4 mps 660 mmHg 60%
    09:00 +26°C° 0 mm 5 mps 660 mmHg 57%
    10:00 +27°C° 0.1 mm 4 mps 660 mmHg 57%
    11:00 +27°C° 0.1 mm 4 mps 660 mmHg 56%
    12:00 +28°C° 0.1 mm 4 mps 660 mmHg 55%
    13:00 +28°C° 0.2 mm 3 mps 659 mmHg 55%
    14:00 +28°C° 0.2 mm 3 mps 659 mmHg 56%
    15:00 +28°C° 0.2 mm 3 mps 659 mmHg 56%
    16:00 +27°C° 0.2 mm 3 mps 659 mmHg 60%
    17:00 +26°C° 0.2 mm 2 mps 659 mmHg 64%
    18:00 +25°C° 0.2 mm 1 mps 659 mmHg 68%
    19:00 +24°C° 0.6 mm 1 mps 658 mmHg 73%
    20:00 +22°C° 0.6 mm 1 mps 658 mmHg 78%
    21:00 +20°C° 0.6 mm 2 mps 658 mmHg 83%
    22:00 +20°C° 0.3 mm 2 mps 658 mmHg 82%
    23:00 +20°C° 0.3 mm 2 mps 658 mmHg 81%
    Show more